Theta_e
327 327 327 327 326 325 324 324 324 324 323 322 320 320 320 319 319 319 320 319 319 318 318 320 321 323 322 313 313 347 367 365 355 350 344 337 332 332 327 329 328 325 326 331 331 332 333
327 327 327 327 326 325 324 324 324 323 322 321 320 319 319 320 320 320 319 319 318 318 318 320 322 324 317 306 334 352 358 355 349 348 342 338 338 336 330 328 325 327 325 328 331 331 331
327 327 327 327 326 325 324 324 323 323 321 320 319 319 319 319 319 319 319 318 318 317 318 321 323 324 314 308 344 354 354 347 350 347 340 340 342 336 335 325 329 326 319 323 328 329 327
327 327 326 326 325 325 324 323 323 323 322 321 320 319 319 319 319 318 317 317 316 318 320 323 325 323 307 319 353 348 347 346 352 348 342 345 345 339 334 332 327 323 321 316 321 327 326
327 326 326 326 325 324 324 323 322 322 322 321 320 318 318 317 317 316 316 316 318 321 322 325 322 317 305 334 337 343 339 339 343 345 348 343 335 329 327 321 319 320 312 313 316 326 325
326 326 326 326 325 324 323 322 322 322 321 320 319 318 317 316 316 315 314 314 324 325 326 328 327 310 312 313 320 337 329 339 332 332 324 326 326 323 319 317 308 312 314 315 315 324 324
326 326 326 325 324 324 323 322 322 321 321 320 319 318 316 315 315 314 315 319 316 315 319 306 307 308 313 320 325 324 327 328 325 321 315 323 319 316 318 319 318 316 316 314 318 323 320
325 325 325 324 324 323 323 321 320 320 320 319 318 317 315 315 314 313 312 316 317 316 311 315 314 313 316 320 316 319 324 321 322 318 318 316 314 320 318 316 315 314 314 314 319 323 321
325 324 324 323 323 323 321 319 320 320 319 319 317 317 315 313 313 312 311 312 318 317 311 311 315 315 316 317 314 319 322 324 320 318 317 316 319 316 316 314 311 312 314 315 315 320 321
324 323 323 323 323 322 320 319 320 319 319 318 317 316 315 312 311 314 316 319 317 316 306 306 311 315 315 314 312 319 328 325 319 317 317 318 321 315 313 310 312 309 316 318 318 316 311
324 324 323 323 322 320 319 319 319 319 318 318 317 315 313 311 313 314 317 318 315 314 296 308 311 317 314 312 315 316 326 323 316 315 315 313 311 308 308 310 316 315 317 319 319 315 314
324 324 323 323 322 320 319 319 319 318 318 317 316 314 313 310 312 315 319 316 316 306 296 306 310 309 309 309 310 317 319 321 320 316 312 314 313 313 312 313 320 322 319 317 315 313 308
324 323 323 322 321 320 319 318 318 318 317 315 313 311 312 315 317 318 317 318 308 301 308 304 305 308 308 307 308 313 314 313 312 307 307 308 310 311 312 316 320 316 311 306 306 307 305
321 321 321 321 320 319 318 318 318 317 316 314 310 310 313 315 317 317 320 315 303 306 306 305 305 307 306 307 306 308 311 311 310 308 308 304 305 308 311 314 316 316 310 305 296 301 305
320 320 320 320 319 318 318 318 317 316 315 313 309 315 316 320 318 318 319 308 307 309 310 304 305 304 303 305 305 306 309 308 313 312 308 303 304 310 309 311 313 310 306 310 308 307 307
319 319 319 319 319 318 318 318 317 316 315 312 319 321 322 319 319 321 316 304 310 313 313 310 304 305 303 304 304 305 305 309 309 312 316 307 303 308 308 308 309 310 312 307 311 302 301
319 318 318 319 318 318 318 317 317 315 314 311 321 322 323 321 320 319 312 311 312 313 315 312 310 309 307 307 303 304 304 308 308 306 310 309 305 307 307 307 306 308 307 307 310 309 304
319 318 318 318 318 318 318 317 316 314 312 314 321 318 324 320 317 311 311 310 307 313 315 314 314 312 310 308 307 307 307 309 314 309 306 309 308 306 306 310 309 306 306 309 304 305 307
319 319 319 318 318 318 318 317 315 313 313 314 322 321 324 321 313 314 313 312 313 312 311 314 313 314 314 311 310 311 311 315 314 312 311 310 307 305 306 309 310 310 309 304 310 312 309
319 319 319 319 318 318 318 317 315 314 314 316 321 318 321 320 316 313 311 311 311 313 309 313 313 315 313 311 311 310 311 314 314 314 320 315 307 306 304 307 308 308 310 313 313 310 311
318 318 319 318 318 318 318 317 316 314 314 317 317 314 315 314 315 310 310 310 309 309 312 313 312 311 311 309 311 309 311 314 315 316 312 312 308 308 308 308 307 308 312 311 309 312 310
318 318 318 318 319 319 318 317 316 314 313 322 317 316 318 316 314 312 308 311 310 311 310 308 310 310 312 309 309 307 309 311 310 314 311 310 308 308 308 308 310 311 313 314 311 314 314
316 317 318 317 318 319 319 318 317 314 315 321 320 320 318 309 314 313 312 312 312 312 312 312 310 311 311 311 313 314 313 312 311 310 311 309 309 308 306 307 309 307 312 315 317 316 316
314 315 317 318 317 318 319 318 318 316 314 315 319 319 317 314 316 314 314 314 313 313 311 315 315 313 315 317 313 311 311 311 310 310 310 308 308 307 306 308 300 310 318 317 317 317 321
313 314 315 317 315 316 318 319 319 317 315 316 320 321 318 313 315 316 315 313 314 315 314 315 318 319 316 312 311 309 310 310 308 307 308 309 309 305 305 304 306 312 317 318 317 316 326
312 312 313 315 314 315 316 319 319 318 315 319 320 322 321 316 312 317 315 314 314 314 315 315 320 319 315 313 311 305 305 306 305 307 308 308 309 310 305 301 299 311 318 323 325 314 327
311 311 312 313 314 314 315 318 320 319 316 316 319 321 321 317 319 318 314 315 317 314 313 313 316 317 317 315 311 310 308 310 306 306 308 309 310 306 305 304 306 314 319 322 314 315 328
310 310 311 311 313 315 315 318 320 320 318 316 319 322 320 317 318 320 320 318 317 316 313 314 313 315 316 312 312 312 311 311 310 310 311 311 311 309 306 306 302 321 323 316 322 326 329
311 311 311 312 313 315 316 317 319 320 318 318 315 321 322 318 316 321 324 326 323 321 316 316 314 314 317 313 312 313 311 311 309 308 314 312 315 315 315 315 321 324 323 326 327 329 331
Wind_Speed
16 16 17 17 18 18 17 15 15 13 13 12 13 11 11 11 12 12 12 10 10 10 10 11 10 10 3 3 1 4 15 18 16 15 10 6 1 1 5 4 4 6 6 5 7 9 10
16 17 17 17 19 19 17 17 16 14 14 13 13 12 10 10 11 12 12 10 9 9 8 10 9 7 3 4 4 10 17 18 11 9 7 4 4 0 5 2 2 3 6 8 11 10 8
16 17 17 17 17 18 20 17 17 14 15 15 13 12 10 9 10 12 11 10 9 7 8 8 6 3 2 1 2 11 15 11 12 5 6 4 2 5 2 1 3 5 3 8 8 3 6
17 17 18 18 18 18 19 19 17 16 13 12 12 11 9 9 9 10 10 10 8 7 6 5 4 2 3 4 6 12 10 10 11 3 4 4 2 2 4 4 3 6 4 2 2 4 4
17 18 18 19 20 20 18 21 19 18 15 12 11 10 9 8 8 8 9 9 10 8 3 5 2 2 1 4 5 9 6 10 9 2 3 4 2 3 2 1 1 5 2 4 4 3 6
18 19 20 21 21 21 20 22 20 18 17 15 12 11 9 6 5 6 9 5 4 7 5 4 3 2 1 2 5 11 2 14 4 7 3 2 2 2 1 3 5 4 3 4 3 2 3
19 20 21 22 22 22 22 22 20 20 19 17 15 9 7 4 3 4 0 4 3 3 2 3 1 1 1 4 7 5 5 7 6 3 4 2 3 6 6 12 7 6 9 4 2 4 3
19 20 20 21 22 22 21 23 21 20 19 18 13 11 6 2 0 1 2 2 1 3 2 4 2 5 5 2 5 6 11 5 4 5 5 3 8 10 7 5 7 9 9 8 3 4 2
18 19 21 22 22 22 23 24 23 21 20 19 17 10 5 0 2 2 3 4 3 1 1 1 3 3 2 7 4 12 13 5 3 6 5 7 5 1 6 10 7 6 12 8 4 6 3
17 19 21 22 23 23 25 26 24 23 21 18 16 11 3 3 2 3 4 1 1 3 1 1 1 2 5 5 4 4 11 5 2 6 5 8 5 6 9 11 7 3 5 8 11 10 3
17 19 21 22 23 25 27 27 25 24 22 19 15 8 1 7 1 4 3 6 6 4 3 2 4 2 2 3 8 4 3 3 8 4 5 5 2 3 5 8 6 4 9 12 9 4 2
18 19 21 23 24 26 27 27 27 25 23 20 15 9 4 4 2 4 5 1 2 3 4 3 4 6 6 2 3 5 5 3 2 5 3 12 0 4 3 5 4 14 15 11 4 1 4
19 20 22 23 26 27 27 27 28 28 26 22 17 5 9 2 2 5 3 3 2 2 2 4 3 6 5 3 3 5 10 9 7 6 7 4 9 3 5 9 7 2 6 3 1 2 1
22 23 24 26 27 27 29 30 28 28 28 25 10 11 5 4 4 7 2 1 2 2 1 3 4 6 5 5 2 3 8 10 4 5 1 3 8 9 9 6 7 13 5 2 2 2 3
22 23 24 26 28 28 30 31 29 31 29 25 2 1 2 2 3 3 0 3 1 0 1 5 5 5 3 3 2 3 6 9 9 12 7 5 4 1 1 3 3 8 5 3 8 1 3
22 23 24 26 27 28 30 29 32 32 32 22 2 1 3 3 4 1 1 1 2 3 2 1 3 3 6 6 6 6 7 4 5 12 11 2 4 2 4 2 10 3 9 5 3 3 3
21 22 24 25 27 28 29 30 29 31 34 13 2 2 3 1 3 2 3 2 3 1 1 1 2 3 2 3 1 1 2 2 1 5 6 5 3 3 3 0 3 5 4 6 5 2 2
21 22 23 24 26 28 29 30 31 30 33 4 3 2 3 3 1 1 2 4 5 6 4 5 4 4 3 1 2 2 2 1 4 9 9 3 1 3 2 2 1 1 2 4 4 5 0
19 20 21 23 24 26 29 30 31 29 26 5 3 2 2 2 3 3 2 2 5 8 7 6 6 6 4 2 2 1 2 3 6 3 4 7 1 2 4 5 4 1 2 2 5 3 5
19 20 21 21 23 25 27 30 31 30 27 2 2 0 3 4 2 2 3 5 3 4 4 4 3 3 2 4 5 3 2 4 4 3 6 4 3 3 3 2 4 1 1 7 3 4 8
16 19 20 21 22 23 25 27 30 33 31 2 5 3 2 3 5 4 1 3 5 6 6 8 4 9 3 6 3 5 6 4 4 4 3 2 4 1 4 3 1 4 3 7 5 2 4
16 15 18 20 20 20 23 25 26 30 32 4 4 3 2 2 2 2 4 3 3 3 5 4 4 5 7 4 3 3 5 4 4 6 4 3 3 1 1 7 1 2 4 2 2 3 3
17 17 15 18 18 18 18 22 23 24 20 4 2 0 2 2 2 1 3 2 4 2 2 3 2 1 4 3 4 6 4 4 3 4 5 3 3 2 1 8 3 4 5 4 1 2 1
16 16 16 15 17 18 17 17 18 17 13 2 2 2 3 2 2 3 2 2 3 4 0 2 3 2 3 7 3 1 1 1 1 0 4 2 4 1 2 4 3 5 3 5 1 4 4
16 15 15 15 16 16 16 15 14 16 17 2 1 2 2 1 2 1 4 3 2 2 0 1 2 3 6 3 1 1 1 3 3 6 1 2 2 4 1 1 5 2 3 3 3 5 3
16 16 16 16 15 15 15 14 12 12 13 3 2 2 1 2 3 1 3 2 2 3 0 1 1 3 0 2 1 1 1 1 3 3 4 5 4 1 3 2 4 3 2 4 2 2 6
15 16 17 16 14 15 15 14 12 10 10 5 3 2 2 2 2 3 1 2 1 0 2 3 6 3 3 2 2 1 2 1 3 2 4 4 3 2 3 3 3 2 5 4 5 3 3
15 15 15 17 16 14 14 14 12 8 8 6 4 2 3 2 5 4 3 3 3 1 2 4 3 2 1 2 1 1 1 2 1 1 0 2 4 3 3 2 4 2 3 3 4 2 3
15 15 15 16 17 15 13 12 11 6 5 5 3 2 3 4 4 3 7 9 6 2 3 1 3 2 1 2 1 1 1 1 1 3 2 3 2 1 4 2 3 3 4 5 2 3 3
Wind_Direction
351 347 345 341 343 346 347 343 340 334 329 325 324 318 313 305 301 300 301 303 308 316 320 319 328 321 291 209 265 105 146 152 153 152 157 161 124 146 105 152 105 135 157 127 81 91 159
352 349 346 343 346 349 348 350 348 344 339 332 326 319 313 305 300 296 298 302 305 311 316 314 323 318 255 213 348 153 149 156 157 150 161 148 47 257 83 177 233 188 134 160 76 77 119
352 349 346 342 339 345 353 350 350 345 346 338 330 323 316 306 300 299 296 297 301 305 309 307 308 294 213 68 348 151 153 148 155 153 166 192 9 1 283 189 81 298 107 150 71 40 87
351 349 346 344 342 342 353 353 349 347 340 335 334 327 319 306 299 295 293 295 296 294 297 284 259 263 252 355 145 144 149 117 159 73 84 51 259 312 313 79 346 337 87 85 57 86 66
351 347 344 343 343 342 345 354 354 349 344 340 341 336 329 316 300 293 293 296 287 272 207 168 214 290 215 126 162 161 170 148 141 218 310 332 20 26 269 282 217 37 24 337 353 77 128
351 347 347 345 344 341 343 351 353 350 345 346 345 341 334 325 311 305 300 261 75 152 165 195 252 242 180 188 137 150 84 143 146 152 181 168 107 169 265 225 335 332 202 250 265 81 158
350 347 346 342 339 341 344 349 351 350 348 350 348 346 344 331 317 328 346 142 182 155 180 218 93 334 82 75 142 147 154 135 124 150 196 98 229 251 249 229 276 271 264 241 163 174 199
347 344 339 338 341 340 344 350 348 347 348 350 350 349 345 340 230 323 276 224 242 25 298 217 242 277 239 243 117 129 165 158 167 146 140 185 264 268 254 268 244 244 249 256 98 154 263
340 337 337 340 339 342 347 350 348 347 346 347 349 350 346 55 160 195 241 236 100 336 270 353 177 204 199 184 154 167 176 154 157 162 189 249 261 84 290 301 254 217 212 213 192 151 66
338 338 339 339 339 345 347 348 346 347 345 343 346 347 356 157 218 151 230 215 195 219 38 77 205 182 142 186 128 125 183 151 130 204 186 263 286 275 275 277 233 234 230 204 155 174 227
338 338 338 339 342 346 346 346 344 345 344 342 343 343 332 212 40 204 73 330 138 211 105 125 129 121 146 175 129 133 201 118 169 162 209 221 271 228 274 284 183 32 131 157 147 148 209
338 338 339 340 343 344 344 342 341 343 342 341 333 312 176 171 227 266 330 100 234 242 99 134 121 154 140 56 104 122 155 92 92 188 244 262 310 257 261 30 153 129 110 104 95 206 254
341 340 339 339 343 342 342 341 341 343 343 340 326 263 181 184 96 329 279 171 270 10 332 137 135 158 132 131 109 151 164 186 199 186 222 247 246 226 190 102 147 185 201 107 138 222 319
344 344 342 341 342 341 342 343 338 342 344 343 354 134 210 244 297 341 211 196 51 44 29 82 116 113 168 164 141 134 152 187 202 198 284 195 230 187 178 214 194 200 259 269 333 298 4
344 343 344 342 341 342 342 344 341 342 345 346 147 188 191 308 221 185 85 68 4 270 257 136 117 132 164 187 212 178 193 204 202 196 218 187 250 83 206 165 217 163 195 61 110 145 265
344 343 343 343 341 342 343 342 344 341 344 343 254 176 40 37 158 172 105 107 289 226 308 149 154 205 168 175 186 201 183 163 201 200 219 159 276 175 103 108 61 258 129 173 94 172 254
344 344 344 343 342 341 344 344 343 343 342 339 244 90 34 197 251 51 44 6 300 311 256 285 116 123 107 160 224 145 119 94 229 158 190 178 254 129 189 313 161 149 167 70 101 312 278
341 342 344 344 343 342 344 345 347 348 344 23 339 54 41 272 87 11 47 327 335 359 21 52 86 67 61 116 123 178 124 265 344 162 169 177 243 316 9 54 350 13 108 194 230 182 288
339 341 342 344 343 344 343 346 347 349 357 318 35 326 79 281 77 40 333 64 36 26 29 24 43 36 53 41 115 287 352 40 31 140 149 169 175 147 142 156 154 60 81 100 112 139 183
337 340 343 343 345 345 346 346 347 348 350 280 329 39 7 58 25 19 12 20 26 35 65 36 55 100 99 49 37 96 36 37 19 87 59 127 91 330 236 25 349 26 113 156 275 192 155
332 336 339 343 345 346 348 348 348 347 345 254 10 63 1 8 29 40 33 8 17 14 18 26 59 48 81 24 34 39 20 3 88 15 86 339 90 38 76 354 225 297 292 219 248 302 251
333 330 334 339 343 345 348 352 351 350 338 70 18 354 17 44 289 301 8 63 36 19 356 24 54 32 38 72 26 347 350 24 30 355 39 358 97 308 88 8 47 128 31 106 208 201 110
330 329 328 334 341 344 347 352 358 359 349 40 24 153 278 19 8 159 32 354 31 297 44 37 30 70 14 39 301 306 292 310 326 339 2 24 121 7 239 343 312 197 354 323 145 185 349
333 328 331 329 335 340 343 348 353 6 17 317 26 285 318 15 9 53 352 302 357 359 133 27 22 315 24 321 195 155 326 318 302 74 301 119 101 39 348 315 253 64 314 262 344 100 127
333 333 328 324 331 334 338 341 347 353 2 291 327 306 9 341 316 286 354 347 323 340 222 237 52 350 333 352 295 18 110 148 56 36 169 346 139 105 270 258 322 183 42 355 5 117 130
329 332 333 324 325 329 332 332 337 347 354 322 321 307 308 317 181 316 316 355 8 345 305 251 7 340 32 60 83 118 146 52 149 114 63 97 67 274 154 225 230 51 7 325 261 169 154
330 327 331 328 318 321 323 324 324 338 352 333 296 335 269 274 250 205 221 331 132 157 290 314 343 348 342 35 72 99 113 286 168 139 157 133 75 205 156 227 264 256 300 300 208 55 156
320 321 320 322 318 310 315 311 314 321 349 343 293 302 318 280 274 216 247 206 169 176 315 15 248 153 52 82 286 106 246 74 162 42 346 168 158 150 141 206 235 29 269 251 32 79 168
312 314 318 315 312 302 309 296 302 307 339 346 282 17 328 245 295 284 264 261 251 263 289 211 334 244 178 112 177 156 160 189 178 132 163 176 282 101 242 77 335 287 286 315 267 122 137